Regional Weather Roundup
Issued by NWS

Home | Current Version | Previous Version | Graphics & Text | Print | Product List | Glossary Off
Versions: 1 2 3 4 5 6 7 8 9 10 11 12 13 14 15 16 17 18 19 20 21 22 23 24 25 26 27 28 29 30 31 32 33 34 35 36 37 38 39 40 41 42 43 44 45 46 47 48 49 50

000
ASUS43 KMKX 232320
RWRWI

WISCONSIN REGIONAL WEATHER ROUNDUP
NATIONAL WEATHER SERVICE MILWAUKEE/SULLIVAN WI
500 PM CST THU NOV 23 2017

NOTE: "FAIR" INDICATES FEW OR NO CLOUDS BELOW 12,000 FEET WITH NO
SIGNIFICANT WEATHER AND/OR OBSTRUCTIONS TO VISIBILITY.

WIZ001-002-006>008-014>016-023>028-240000-
NORTHWEST WISCONSIN

CITY           SKY/WX    TMP DP  RH WIND       PRES   REMARKS
SUPERIOR ARPT  CLOUDY    38  25  58 S3        29.73F
ASHLAND        CLOUDY    37  22  54 S3        29.78S
HAYWARD        CLOUDY    39  22  50 S8        29.76F WCI  33
SIREN          CLOUDY    38  23  55 S6        29.77F WCI  34
CUMBERLAND     CLOUDY    34  23  64 SW7       29.79F WCI  28
RICE LAKE      PTCLDY    35  24  66 S5        29.81F WCI  30
CHETEK         CLEAR     36  22  57 SE8       29.79F WCI  30
LADYSMITH      CLEAR     35  22  58 S5        29.81F WCI  31
EAU CLAIRE     CLEAR     38  20  48 SW5       29.82S WCI  34
MENOMONIE      CLEAR     36  22  57 SE3       29.82F
NEW RICHMOND   CLOUDY    39  23  51 S7        29.79F WCI  34
OSCEOLA        CLOUDY    39  24  54 SE7       29.81F WCI  34
$$

WIZ003>005-009-010-017-018-240000-
NORTH CENTRAL WISCONSIN

CITY           SKY/WX    TMP DP  RH WIND       PRES   REMARKS
MANITOWISH WTR CLEAR     32  23  70 S3        29.76F
ARBOR VITAE    CLEAR     33  25  71 CALM      29.76F
WOODRUFF       CLEAR     33  25  71 CALM      29.76F
RHINELANDER    CLEAR     35  23  61 S3        29.78F
EAGLE RIVER    CLEAR     31  22  70 CALM      29.77S
LAND O LAKES   CLEAR     30  22  74 CALM      29.79S
PHILLIPS       CLEAR     32  23  68 SW3       29.79R
TOMAHAWK       CLEAR     32  22  66 CALM      29.79F
MEDFORD        CLEAR     32  21  65 S6        29.79F WCI  26
MERRILL        CLEAR     35  22  60 S3        29.80F
$$

WIZ029-030-035-036-043>047-240000-
CENTRAL WISCONSIN

CITY           SKY/WX    TMP DP  RH WIND       PRES   REMARKS
WAUSAU         CLEAR     35  22  58 S3        29.81F
MOSINEE        PTCLDY    32  21  64 S5        29.83F WCI  27
MARSHFIELD     CLOUDY    34  21  59 S7        29.80F WCI  28
STEVENS POINT  CLEAR     31  19  61 S3        29.84F
WAUPACA        CLEAR     38  21  48 CALM      29.86S
WAUTOMA        CLEAR     33  21  61 SW5       29.87S WCI  29
WISC RAPIDS    CLOUDY    34  21  59 S5        29.86S WCI  30
CAMP DOUGLAS   CLEAR     33  21  61 CALM      29.85F
$$

WIZ011>013-019>022-031-037>040-048>050-240000-
NORTHEAST WISCONSIN

CITY           SKY/WX    TMP DP  RH WIND       PRES   REMARKS
ANTIGO         CLEAR     32  24  71 SW7       29.82S WCI  25
SHAWANO        CLEAR     37  21  53 CALM      29.85S
OCONTO         CLEAR     31  19  63 S3        29.86R
STURGEON BAY   CLEAR     35  21  56 S5        29.86F WCI  31
GREEN BAY      CLEAR     37  24  59 S5        29.86F WCI  33
MANITOWOC      CLEAR     37  21  52 S7        29.88F WCI  32
APPLETON       PTCLDY    34  18  51 SW5       29.85F WCI  30
CLINTONVILLE   CLEAR     36  21  55 SW6       29.86S WCI  31
OSHKOSH        CLEAR     33  23  66 S6        29.86F WCI  28
$$

WIZ032>034-041-042-053>061-240000-
SOUTHWEST WISCONSIN

CITY           SKY/WX    TMP DP  RH WIND       PRES   REMARKS
LA CROSSE      CLEAR     40  23  50 S5        29.85F
SPARTA         CLEAR     34  22  62 CALM      29.86F
VIROQUA        CLEAR     38  25  58 S5        29.85S WCI  35
BOSCOBEL       CLEAR     36  23  59 CALM      29.88F
PRAIRIE DU CHI CLEAR     40  23  49 E3        29.87F
PLATTEVILLE    CLEAR     39  26  59 S3        29.89F
$$

WIZ056-057-062-063-064-067-068-240000-
SOUTH CENTRAL WISCONSIN

CITY           SKY/WX    TMP DP  RH WIND       PRES   REMARKS
REEDSBURG      CLEAR     40  22  50 S3        29.86F
BARABOO/DELLS  CLEAR     38  21  50 CALM      29.87S
LONE ROCK      NOT AVBL
MINERAL POINT  CLEAR     43  27  52 S5        29.88F
MADISON        CLEAR     38  22  52 CALM      29.88F
MIDDLETON      CLEAR     38  26  59 CALM      29.88F
WATERTOWN      CLEAR     33  24  69 CALM      29.89S
MONROE         CLEAR     41  25  52 W6        29.90S
JANESVILLE     CLEAR     41  25  52 W3        29.91R
$$

WIZ051-052-058>065-066-070>072-240000-
SOUTHEAST WISCONSIN

CITY           SKY/WX    TMP DP  RH WIND       PRES   REMARKS
MILWAUKEE      PTCLDY    42  24  49 SW6       29.91S
WAUKESHA       CLEAR     36  21  55 W5        29.91S WCI  32
MILWAUKEE/TIMM CLEAR     39  19  45 W3        29.92R
RACINE         CLEAR     41  24  51 CALM      29.93R
BURLINGTON     CLEAR     38  28  67 CALM      29.91S
KENOSHA        CLEAR     36  23  59 SW3       29.91S
FOND DU LAC    CLEAR     33  21  61 S7        29.87F WCI  27
SHEBOYGAN      CLEAR     35  23  61 SW5       29.90R WCI  31
WEST BEND      CLEAR     36  21  55 CALM      29.89F
JUNEAU         CLEAR     37  22  54 S3        29.89F
$$

LSZ147-162-240000-
LAKE SUPERIOR

STATION/POSITION TIME  TEMP    WIND        PRES    WAVE
                       AIR SEA DIR/SP/G            HT/PER
                 (UTC) (F)     (DEG/KT/KT) (MB)    (FT/S)
DEVILS ISLAND    2300   36     190/  4/  5 1008.3F
SAXON HARBOR     2240   32     190/  2/  3 1008.1S
$$

LMZ867-665-643>646-240000-
LAKE MICHIGAN

STATION/POSITION TIME  TEMP    WIND        PRES    WAVE
                       AIR SEA DIR/SP/G            HT/PER
                 (UTC) (F)     (DEG/KT/KT) (MB)    (FT/S)
N MID LAKE BUOY  2250   39 47  240/ 12/ 14 1012.2F   3/ 6
NORTHPORT PIER   2240   35     200/  2/  5 1010.8F
KEWAUNEE LAKESHO 2254   38     200/  6/  7 1010.5F
SHEBOYGAN LAKESH 2300   40     240/  6/  6 1013.0R
PORT WASHINGTON  2230   42     290/  2/  4 1013.9R
MILWAUKEE LAKESH 2300   43     330/  2/  2   N/A
S MID LAKE BUOY  2250   43 47  260/  8/ 12 1013.9R   2/ 5
KENOSHA   LAKESH 2300   42     260/  2/  4 1013.2
$$

TC  - TEMPERATURE IN CELSIUS
VSB - VISIBILITY IN STATUTE MILES
WCI - WIND CHILL INDEX
HX  - HEAT INDEX





USA.gov is the U.S. government's official web portal to all federal, state and local government web resources and services.